This demonstration page uses our WeatherBlox Daily Observations layout. Learn more.

Hourly Observations for June 29, 2016

Temp ( °F °C ) Dew Point ( °F °C ) Humidity (%) Winds ( mph kmh ) Pressure ( in mb ) Visibility ( mi km ) Precip ( " mm )
12:15 am 00:15 Partly Cloudy 68 20 59 14.9 73 73 NW 18 30 30.18 1022 10 16.09344 0 0
12:35 am 00:35 Mostly Cloudy with Heavy Thunderstorms 63 17 60 15.3 90 90 NNW 18 30 30.21 1023 4 6.437376 0.16 4.064
12:55 am 00:55 Cloudy with Thunderstorms 62 16.8 60 15.6 93 93 NW 8 13 30.18 1022 5 8.04672 0.33 8.382
1:15 am 01:15 Mostly Cloudy with Rain 62 16.8 60 15.6 93 93 Calm 30.15 1021 5 8.04672 0.08 2.032
1:35 am 01:35 Cloudy with Rain 62 16.8 60 15.8 94 94 SE 23 37 30.06 1018 7 11.265408 0.17 4.318
1:55 am 01:55 Mostly Cloudy with Light Rain 63 17.1 61 16 93 93 SE 12 19 30.03 1017 10 16.09344 0.19 4.826
2:15 am 02:15 Partly Cloudy 63 17.3 60 15.5 89 89 NNW 10 17 30.06 1018 10 16.09344 0 0
2:35 am 02:35 Clear 63 17.1 60 15.8 92 92 N 5 7 30.09 1019 10 16.09344 0 0
2:55 am 02:55 Clear 62 16.7 60 15.5 93 93 Calm 30.09 1019 10 16.09344 0 0
3:15 am 03:15 Clear 62 16.7 60 15.6 93 93 ESE 3 6 30.09 1019 10 16.09344 0 0
3:35 am 03:35 Clear 62 16.5 60 15.5 94 94 Calm 30.06 1018 10 16.09344 0 0
3:55 am 03:55 Clear 61 16.1 59 15.1 94 94 Calm 30.06 1018 10 16.09344 0 0
4:15 am 04:15 Clear 61 16 59 15.1 94 94 E 3 6 30.06 1018 10 16.09344 0 0
4:35 am 04:35 Clear 61 16.2 60 15.4 95 95 Calm 30.06 1018 10 16.09344 0 0
4:55 am 04:55 Clear 61 16.1 59 15.1 94 94 Calm 30.06 1018 10 16.09344 0 0
5:15 am 05:15 Clear 61 16.1 59 15.1 94 94 Calm 30.06 1018 10 16.09344 0 0
5:35 am 05:35 Clear 60 15.8 59 15 95 95 Calm 30.06 1018 10 16.09344 0 0
5:55 am 05:55 Clear 60 15.5 58 14.6 94 94 Calm 30.06 1018 10 16.09344 0 0
6:15 am 06:15 Sunny 59 15.2 58 14.5 96 96 Calm 30.06 1018 7 11.265408 0 0
6:35 am 06:35 Sunny 60 15.7 59 14.9 95 95 Calm 30.06 1018 10 16.09344 0 0
6:55 am 06:55 Sunny 61 15.9 59 15 94 94 Calm 30.06 1018 10 16.09344 0 0
7:15 am 07:15 Sunny 62 16.6 60 15.3 92 92 Calm 30.09 1019 10 16.09344 0 0
7:35 am 07:35 Sunny 63 17.2 60 15.6 90 90 Calm 30.06 1018 10 16.09344 0 0
7:55 am 07:55 Sunny 64 17.9 61 16 89 89 Calm 30.06 1018 10 16.09344 0 0
8:15 am 08:15 Sunny 66 18.8 61 16.1 84 84 Calm 30.06 1018 10 16.09344 0 0
8:35 am 08:35 Sunny 67 19.5 61 16.2 81 81 Calm 30.06 1018 10 16.09344 0 0
8:55 am 08:55 Sunny 68 19.8 61 16.3 80 80 Calm 30.06 1018 10 16.09344 0 0
9:15 am 09:15 Sunny 69 20.4 61 16 76 76 Calm 30.06 1018 10 16.09344 0 0
9:35 am 09:35 Sunny 69 20.5 60 15.8 75 75 W 3 6 30.06 1018 10 16.09344 0 0
9:55 am 09:55 Sunny 70 21 61 15.9 73 73 Calm 30.03 1017 10 16.09344 0 0
10:15 am 10:15 Sunny 72 22 62 16.4 71 71 WSW 5 7 30.03 1017 10 16.09344 0 0
10:35 am 10:35 Sunny 72 22.1 61 15.9 68 68 Calm 30.03 1017 10 16.09344 0 0
10:55 am 10:55 Sunny 72 22.2 60 15.7 67 67 Calm 30.03 1017 10 16.09344 0 0
11:15 am 11:15 Sunny 73 22.8 62 16.4 67 67 Calm 30.03 1017 10 16.09344 0 0
11:35 am 11:35 Sunny 74 23.1 62 16.4 66 66 N 5 7 30.03 1017 10 16.09344 0 0
11:55 am 11:55 Sunny 75 23.7 62 16.5 64 64 NNW 7 11 30.03 1017 10 16.09344 0 0
12:15 pm 12:15 Sunny 76 24.4 60 15.8 59 59 NW 5 7 30 1016 10 16.09344 0 0
12:35 pm 12:35 Sunny 77 24.8 60 15.7 57 57 NW 10 17 29.97 1015 10 16.09344 0 0
12:55 pm 12:55 Sunny 77 25.1 60 15.5 55 55 NNW 8 13 29.97 1015 10 16.09344 0 0
1:15 pm 13:15 Sunny 78 25.5 62 16.4 57 57 NW 6 9 29.97 1015 10 16.09344 0 0
1:35 pm 13:35 Sunny 78 25.5 61 16.1 56 56 NW 3 6 29.97 1015 10 16.09344 0 0
1:55 pm 13:55 Sunny 78 25.8 61 16.3 56 56 N 5 7 29.97 1015 10 16.09344 0 0
2:15 pm 14:15 Sunny 79 26 62 16.4 56 56 NNW 3 6 29.97 1015 10 16.09344 0 0
2:35 pm 14:35 Sunny 79 26 62 16.7 57 57 W 6 9 29.97 1015 10 16.09344 0 0
2:55 pm 14:55 Sunny 80 26.5 63 17.1 56 56 N 5 7 29.97 1015 10 16.09344 0 0
3:15 pm 15:15 Sunny 80 26.6 62 16.9 55 55 NNW 7 11 29.94 1014 10 16.09344 0 0
3:35 pm 15:35 Sunny 80 26.7 62 16.7 54 54 NNE 3 6 29.94 1014 10 16.09344 0 0
3:55 pm 15:55 Sunny 80 26.7 62 16.4 53 53 Calm 29.94 1014 10 16.09344 0 0
4:15 pm 16:15 Sunny 81 27.2 61 16.3 51 51 N 3 6 29.94 1014 10 16.09344 0 0
4:35 pm 16:35 Sunny 81 27.2 62 16.4 52 52 Calm 29.94 1014 10 16.09344 0 0
4:55 pm 16:55 Sunny 82 27.5 62 16.9 52 52 N 5 7 29.91 1013 10 16.09344 0 0
5:15 pm 17:15 Sunny 82 27.6 62 16.6 51 51 Calm 29.91 1013 10 16.09344 0 0
5:35 pm 17:35 Sunny 81 27.3 61 15.9 50 50 Calm 29.88 1012 10 16.09344 0 0
5:55 pm 17:55 Sunny 82 27.5 61 16.3 50 50 ENE 3 6 29.88 1012 10 16.09344 0 0
6:15 pm 18:15 Sunny 81 27.3 61 16.3 51 51 Calm 29.88 1012 10 16.09344 0 0
6:35 pm 18:35 Sunny 82 27.5 61 16.2 50 50 Calm 29.88 1012 10 16.09344 0 0
6:55 pm 18:55 Sunny 81 27.4 61 15.9 49 49 Calm 29.85 1011 10 16.09344 0 0
7:15 pm 19:15 Sunny 81 27.3 60 15.6 49 49 Calm 29.85 1011 10 16.09344 0 0
7:35 pm 19:35 Sunny 81 27.2 61 16.2 51 51 Calm 29.85 1011 10 16.09344 0 0
7:55 pm 19:55 Sunny 80 26.7 60 15.6 51 51 Calm 29.88 1012 10 16.09344 0 0
8:15 pm 20:15 Sunny 79 26.2 62 16.8 56 56 Calm 29.88 1012 10 16.09344 0 0
8:35 pm 20:35 Sunny 77 25.2 63 17.3 62 62 Calm 29.91 1013 10 16.09344 0 0
8:55 pm 20:55 Sunny 76 24.2 64 17.8 68 68 Calm 29.91 1013 10 16.09344 0 0
9:15 pm 21:15 Clear 75 23.7 67 19.4 77 77 Calm 29.91 1013 10 16.09344 0 0
9:35 pm 21:35 Clear 74 23.3 65 18.5 75 75 Calm 29.94 1014 10 16.09344 0 0
9:55 pm 21:55 Clear 74 23.5 64 17.5 69 69 Calm 29.91 1013 10 16.09344 0 0
10:15 pm 22:15 Clear 73 22.5 64 17.9 75 75 Calm 29.94 1014 10 16.09344 0 0
10:35 pm 22:35 Clear 71 21.5 65 18.3 82 82 Calm 29.94 1014 10 16.09344 0 0
10:55 pm 22:55 Clear 70 21.2 65 18.1 83 83 Calm 29.94 1014 10 16.09344 0 0
11:15 pm 23:15 Clear 70 21 65 18.2 84 84 E 5 7 29.94 1014 10 16.09344 0 0
11:35 pm 23:35 Clear 69 20.8 64 18 84 84 ESE 5 7 29.94 1014 10 16.09344 0 0
11:55 pm 23:55 Clear 70 21.3 64 18 82 82 Calm 29.94 1014 10 16.09344 0 0

Powered by AerisWeather